Flag for Canada Weather past 2 weeks in Richmond, British Columbia, Canada

Now
46 °F

Passing clouds.


Feels Like: 46 °F
Forecast: 42 / 46 °F
Wind: No wind

Location: Vancouver International Air-Port

Current Time: Dec 21, 2014 at 9:58:56 PM

Latest Report: Dec 21, 2014 at 9:00 PM


Visibility: 15 mi

Pressure: 30.01 "Hg

Humidity: 82%

Dew point: 41 °F

Location of RichmondLocation

Historic Weather in Richmond — Graph

°F

Richmond temperature yesterday

Maximum temperature yesterday: 50 °F (at 10:50 PM)
Minimum temperature yesterday: 43 °F (at 9:00 AM)
Average temperature yesterday: 46 °F

Past Weeks' High & Low Weather Summary

 TemperatureHumidityPressure
High59 °F (Dec 9, 1:00 PM)100% (Dec 7, 2:00 AM)30.26 "Hg (Dec 7, 2:00 AM)
Low28 °F (Dec 15, 4:00 AM)66% (Dec 15, 1:00 PM)29.15 "Hg (Dec 11, 6:00 PM)
Average46 °F89%29.81 "Hg
* Reported Dec 6 8:00 PM — Dec 21 8:00 PM, Richmond, Weather by CustomWeather, © 2014

Note: Actual official high and low records may vary slightly from our data, if they occured in-between our weather recording intervals... More about our weather records

Advertising

Richmond weather history for previous 24 hours

 ConditionsComfort  
Time TempWeatherWind HumidityBarometerVisibility
8:00 PM
Dec 21
48 °FOvercast.No wind76%30.00 "Hg15 mi
7:00 PM45 °FMostly cloudy.6 mph93%29.99 "Hg15 mi
6:00 PM46 °FMostly cloudy.6 mph93%29.99 "Hg15 mi
5:00 PM46 °FMostly cloudy.8 mph93%29.97 "Hg15 mi
4:00 PM46 °FBroken clouds.7 mph93%29.96 "Hg15 mi
3:00 PM48 °FBroken clouds.5 mph87%29.93 "Hg15 mi
2:00 PM50 °FBroken clouds.5 mph88%29.92 "Hg15 mi
1:00 PM48 °FPartly sunny.7 mph94%29.90 "Hg15 mi
12:00 PM46 °FScattered showers. Broken clouds.9 mph93%29.89 "Hg15 mi
11:00 AM45 °FPartly sunny.6 mph100%29.88 "Hg15 mi
10:00 AM45 °FFog.8 mph93%29.86 "Hg15 mi
9:00 AM39 °FFog.3 mph100%29.83 "Hg15 mi
8:00 AM39 °FChilly.5 mph93%29.79 "Hg15 mi
7:00 AM43 °FFog.5 mph100%29.76 "Hg15 mi
6:00 AM41 °FPassing clouds.5 mph100%29.73 "Hg15 mi
5:00 AM43 °FPassing clouds.2 mph100%29.69 "Hg15 mi
4:00 AM43 °FPassing clouds.6 mph100%29.65 "Hg15 mi
3:00 AM45 °FPassing clouds.9 mph93%29.63 "Hg15 mi
2:00 AM45 °FPassing clouds.12 mph100%29.58 "Hg15 mi
1:00 AM45 °FPassing clouds.12 mph93%29.50 "Hg15 mi
12:00 AM43 °FPassing clouds.6 mph100%29.44 "Hg15 mi
11:00 PM
Dec 20
48 °FOvercast.7 mph94%29.36 "Hg15 mi
10:50 PM50 °FMostly cloudy.9 mph94%29.35 "Hg15 mi
10:00 PM48 °FLight rain. Mostly cloudy.8 mph94%29.31 "Hg15 mi
9:00 PM48 °FMostly cloudy.12 mph94%29.31 "Hg15 mi
Weather by CustomWeather, © 2014

See weather overviewHow to use our weather pages